Wind_Speed
25 24 24 23 22 22 22 21 21 22 21 21 21 20 20 20 20 19 19 18 19 19 19 20 20 20 21 20 21 20 20 20 21 21 20 20 22 23 23 23 23 23 23 24
25 25 25 25 24 24 24 23 23 23 23 22 22 21 20 20 21 21 21 21 21 21 21 21 22 22 22 22 22 23 22 22 23 23 22 23 23 24 24 24 24 25 25 25
26 26 26 26 24 24 25 25 24 24 24 24 24 22 21 21 22 21 21 22 22 22 22 22 23 23 24 24 23 23 24 25 25 24 24 24 24 25 25 24 25 26 26 27
28 27 28 27 26 25 25 25 26 26 25 25 24 23 22 22 22 22 22 22 23 23 23 23 23 23 24 25 25 25 26 26 26 26 26 25 25 26 26 26 26 26 27 28
29 28 28 28 27 25 25 25 26 26 25 25 24 24 23 23 23 23 23 23 23 24 24 25 25 25 25 26 26 27 27 26 26 27 27 27 27 27 27 27 28 28 28 29
30 29 28 27 26 25 25 26 25 25 25 25 24 24 24 23 23 23 23 24 24 24 25 25 25 26 26 27 27 27 27 27 28 28 28 28 28 29 29 29 29 30 30 30
30 29 28 29 27 26 26 26 25 25 25 25 25 25 24 24 24 24 24 24 25 25 26 26 26 26 26 27 28 28 28 29 29 29 30 30 30 31 31 31 31 31 31 32
29 29 29 29 28 27 27 26 25 25 25 25 25 25 26 26 26 25 25 26 26 26 26 27 28 28 28 28 29 29 29 30 30 30 31 31 32 32 33 33 32 32 33 33
29 29 30 29 29 28 27 27 26 26 25 26 26 26 27 27 27 26 27 27 27 28 28 28 28 29 29 30 30 30 30 31 31 31 31 32 32 32 33 33 33 34 33 33
29 29 30 29 29 29 28 27 27 27 27 27 27 27 27 28 28 28 28 28 28 27 27 27 28 29 29 30 31 32 32 32 32 32 32 33 32 33 34 33 33 32 32 32
30 30 30 29 29 29 29 28 28 28 27 27 27 27 28 28 28 28 28 28 28 28 28 29 29 30 30 31 32 32 32 32 32 33 33 33 33 33 32 32 32 32 32 32
30 30 30 30 29 29 29 29 29 28 28 28 27 27 27 28 28 27 28 28 28 28 29 29 30 30 31 32 32 32 32 32 32 33 33 33 32 31 31 32 32 32 32 32
29 29 30 29 29 29 29 29 28 28 28 27 27 27 27 27 28 28 28 28 28 29 29 30 31 31 31 31 31 32 32 32 32 32 32 32 31 31 31 31 31 32 32 32
29 29 29 29 29 29 29 28 28 27 27 27 27 27 27 27 27 28 28 28 29 29 30 31 31 31 31 32 31 32 31 32 32 31 31 32 32 32 32 33 33 33 32 33
29 29 29 29 29 28 28 27 27 27 27 27 28 27 27 27 27 27 28 28 29 29 30 30 31 31 31 31 31 31 31 31 31 31 31 32 32 33 33 33 33 33 33 33
27 28 27 28 28 27 27 27 27 28 27 27 27 27 26 27 27 27 28 28 29 29 30 30 31 31 31 31 32 32 31 30 30 31 31 32 32 33 33 32 32 33 33 33
26 26 26 26 26 26 26 26 27 26 26 25 25 25 26 27 27 27 28 29 30 30 30 31 31 31 32 32 31 32 31 30 30 31 31 31 32 31 31 31 31 31 32 32
25 25 24 25 25 25 25 25 25 25 25 25 25 25 26 27 27 28 28 29 29 30 30 31 31 31 31 32 31 31 31 31 31 31 31 31 30 30 29 29 30 30 31 31
25 24 24 24 25 25 25 24 24 24 25 26 26 27 28 28 28 28 28 29 29 30 30 30 30 30 31 30 30 30 30 30 30 30 30 30 29 29 29 29 29 29 30 30
24 23 24 24 24 25 25 25 25 25 25 25 26 27 27 27 28 28 28 29 28 29 29 30 30 30 29 28 28 29 29 29 29 28 28 28 28 28 28 28 28 28 28 28
23 22 22 22 22 23 24 25 25 25 25 25 25 26 26 27 28 28 28 28 28 28 28 28 28 28 27 28 28 28 29 29 28 27 27 27 27 27 27 27 27 27 27 27
21 22 22 21 21 21 22 23 24 24 25 25 25 25 25 26 26 27 27 27 26 26 26 26 25 25 26 27 27 27 28 28 28 28 28 27 27 26 27 27 26 26 26 26
21 22 22 22 21 22 22 23 23 23 24 24 24 25 25 25 25 25 25 26 26 26 26 25 25 25 26 25 25 26 27 27 27 27 28 27 27 27 27 27 27 26 27 27
21 20 21 21 21 21 21 22 23 23 24 24 24 25 25 25 25 25 25 25 25 26 26 25 24 24 25 25 25 25 26 26 26 27 27 27 27 27 27 27 27 26 26 26
20 19 19 20 20 20 20 21 22 23 23 23 24 24 24 24 24 25 25 25 25 25 24 25 24 24 25 25 25 26 27 27 27 27 27 27 27 27 26 26 26 25 25 24
18 19 19 19 19 20 20 21 21 22 23 23 22 22 22 22 22 23 23 23 23 24 24 24 24 24 25 25 25 26 26 27 27 26 26 26 26 26 25 25 25 24 24 24
16 17 18 19 19 19 19 19 20 21 21 21 20 21 21 22 22 22 22 22 22 23 23 23 24 24 25 25 25 26 27 26 26 25 26 26 25 25 24 24 24 24 25 24
Wind_Direction
238 240 245 249 251 253 254 255 258 264 268 270 271 273 276 277 277 278 278 279 279 279 277 278 280 282 284 285 285 284 284 283 285 287 286 283 283 284 283 283 285 286 286 287
244 246 248 251 252 254 256 257 260 264 267 270 271 272 275 276 276 277 278 279 281 282 282 280 281 282 283 283 283 282 282 282 284 284 284 285 285 285 283 283 284 285 286 287
248 250 252 253 253 255 258 258 258 261 265 268 271 272 274 276 276 277 278 278 279 281 283 283 283 283 284 284 284 283 282 282 283 283 284 285 285 285 283 283 285 286 286 287
250 251 251 253 254 255 258 260 260 261 264 267 268 270 272 274 273 273 276 280 281 281 282 283 284 285 286 285 285 284 283 283 283 283 283 284 284 284 283 284 286 286 287 290
248 250 255 255 256 256 257 258 258 260 261 264 266 268 270 272 273 272 276 279 279 280 281 283 283 284 286 286 286 287 285 284 282 282 282 282 284 284 283 284 284 285 287 289
249 249 252 255 256 256 256 258 259 260 261 264 266 267 270 272 274 276 277 278 279 279 281 284 285 285 286 287 287 287 287 286 284 282 282 282 283 284 284 284 283 284 286 287
249 250 251 254 256 256 255 258 259 260 260 262 263 267 270 273 273 275 276 276 277 279 280 282 284 285 286 287 287 288 288 287 286 285 283 283 283 284 284 285 285 285 286 286
247 248 250 253 255 256 258 259 259 259 261 263 264 267 269 272 273 275 277 277 278 278 278 280 282 284 287 288 288 289 289 288 287 285 284 284 285 284 284 285 285 286 286 287
246 248 251 253 254 256 258 260 260 259 262 264 266 268 269 272 274 275 276 277 277 277 278 280 282 285 286 287 289 289 288 287 286 285 285 286 286 285 286 287 287 287 287 287
246 247 250 252 254 256 258 260 261 261 263 265 266 267 268 271 272 273 274 275 277 278 280 281 282 284 286 287 288 288 288 287 285 285 284 284 284 285 286 287 288 287 288 288
247 248 250 252 254 255 257 259 260 261 263 265 266 266 265 266 268 271 273 273 275 278 281 282 283 284 286 287 287 288 288 287 286 285 285 285 286 286 286 286 286 286 287 287
248 248 249 251 252 253 255 257 259 260 262 264 265 266 267 267 269 272 274 276 277 278 280 282 283 285 286 287 288 289 289 289 288 287 286 286 287 287 286 286 286 286 286 286
249 249 249 251 252 253 255 257 258 259 261 263 265 266 267 269 270 271 273 275 277 279 280 281 283 285 286 287 288 290 290 289 290 288 287 287 288 288 287 286 286 287 286 285
249 250 250 252 254 255 256 257 257 258 260 262 265 267 268 269 270 272 274 275 276 278 281 283 284 286 287 289 290 290 290 290 290 289 288 288 288 289 288 286 286 285 285 285
249 250 252 253 254 255 256 256 256 258 260 261 264 265 266 267 269 271 274 276 277 278 281 283 284 286 287 289 290 291 292 291 290 290 290 290 289 289 289 288 287 287 286 285
250 252 253 253 253 254 254 254 255 258 260 261 263 266 266 267 269 272 275 277 279 279 281 283 285 286 286 287 289 290 290 290 291 292 292 292 292 291 290 289 288 288 288 287
250 251 251 250 251 252 254 256 257 259 261 262 264 266 267 269 270 273 275 278 280 281 282 284 285 285 285 287 289 290 291 290 291 292 293 293 293 293 292 291 290 290 290 290
248 249 249 248 250 252 253 255 257 260 261 262 264 266 268 270 273 275 278 280 280 281 283 284 285 285 285 287 289 290 291 292 291 291 292 293 293 292 292 292 292 292 292 292
249 250 250 250 251 252 253 254 258 260 262 264 265 269 271 272 275 277 279 280 281 282 285 286 287 287 288 288 288 289 291 293 293 292 292 293 293 293 292 292 292 292 293 293
248 249 251 253 254 254 254 256 260 264 264 265 267 270 272 273 276 279 280 282 283 285 285 286 287 287 287 288 289 290 291 293 294 294 294 294 294 294 294 295 295 295 295 295
247 249 251 253 255 255 255 257 261 263 265 266 268 271 274 275 276 278 279 280 283 285 284 286 287 288 288 289 290 291 292 293 294 294 295 296 298 297 296 297 297 297 298 298
249 250 252 254 256 257 259 260 261 263 266 269 271 273 275 276 277 278 279 280 282 285 286 287 287 288 290 290 290 291 292 294 294 295 297 298 298 299 301 300 300 299 299 299
252 252 253 253 255 258 260 260 262 265 268 271 273 275 275 276 278 279 280 281 282 286 288 288 288 289 291 292 293 294 294 294 295 296 297 297 297 298 300 301 302 300 299 299
251 253 252 254 256 258 260 262 263 265 268 270 272 273 274 276 278 280 281 282 283 285 287 288 288 289 290 292 293 293 293 294 295 296 298 298 298 298 299 301 301 301 300 300
250 252 252 253 255 259 261 262 264 265 267 270 271 272 274 276 277 279 280 282 284 286 288 289 289 290 291 292 292 292 292 294 295 295 296 298 299 299 299 300 301 301 300 301
250 251 252 255 258 260 262 263 266 267 267 270 271 271 273 275 277 279 282 283 285 288 290 292 292 293 293 293 293 294 294 294 294 295 296 297 299 299 299 300 300 301 301 301
255 255 257 259 261 263 264 266 268 269 270 270 271 273 275 278 281 283 284 285 288 291 294 295 295 295 294 294 294 294 294 295 294 295 296 297 298 299 299 299 299 300 302 303
Height
5871 5872 5873 5875 5876 5877 5878 5880 5881 5881 5881 5881 5880 5879 5879 5878 5877 5876 5876 5875 5874 5873 5872 5871 5870 5869 5867 5866 5864 5863 5862 5861 5859 5857 5855 5853 5852 5851 5849 5848 5846 5845 5843 5842
5864 5866 5867 5868 5870 5871 5872 5873 5874 5874 5874 5874 5873 5873 5873 5872 5872 5871 5870 5870 5869 5868 5867 5865 5864 5863 5862 5860 5859 5857 5856 5854 5853 5851 5850 5848 5846 5844 5843 5841 5840 5839 5837 5835
5858 5859 5860 5862 5864 5865 5866 5866 5867 5868 5869 5868 5867 5867 5867 5867 5866 5865 5865 5864 5863 5862 5861 5860 5858 5857 5855 5854 5852 5851 5849 5848 5846 5844 5843 5841 5839 5838 5836 5835 5833 5832 5830 5828
5851 5852 5853 5858 5857 5858 5859 5860 5860 5861 5861 5861 5861 5861 5861 5860 5859 5859 5858 5858 5857 5855 5854 5853 5852 5850 5849 5847 5845 5844 5842 5840 5839 5837 5835 5834 5832 5831 5829 5828 5826 5825 5823 5821
5843 5845 5847 5849 5849 5851 5852 5852 5853 5853 5854 5854 5854 5855 5854 5853 5853 5852 5852 5851 5850 5849 5848 5847 5846 5844 5842 5840 5838 5836 5834 5833 5831 5829 5828 5826 5825 5823 5822 5820 5819 5817 5815 5813
5835 5837 5840 5842 5842 5843 5845 5845 5846 5847 5847 5848 5848 5848 5848 5847 5846 5846 5845 5844 5843 5842 5841 5840 5838 5837 5835 5833 5831 5829 5827 5825 5823 5821 5820 5819 5817 5815 5813 5812 5810 5809 5807 5805
5827 5829 5832 5833 5834 5836 5839 5839 5839 5839 5840 5841 5841 5841 5841 5840 5839 5839 5838 5837 5836 5835 5834 5833 5831 5829 5828 5826 5823 5821 5819 5817 5815 5813 5811 5810 5808 5807 5805 5803 5802 5800 5798 5796
5820 5822 5826 5824 5826 5829 5830 5830 5831 5832 5833 5833 5833 5833 5833 5832 5832 5831 5831 5830 5829 5828 5827 5825 5823 5822 5820 5818 5816 5813 5811 5808 5806 5804 5803 5801 5800 5798 5796 5794 5792 5791 5789 5787
5812 5815 5815 5816 5818 5820 5821 5822 5823 5824 5825 5825 5826 5825 5825 5825 5824 5824 5823 5823 5822 5820 5819 5817 5816 5814 5812 5810 5807 5805 5802 5800 5798 5796 5794 5792 5791 5789 5787 5785 5783 5781 5779 5777
5803 5805 5807 5808 5810 5811 5813 5814 5815 5816 5817 5817 5817 5817 5817 5817 5816 5816 5815 5815 5814 5813 5811 5810 5808 5806 5804 5802 5799 5796 5794 5792 5789 5787 5785 5783 5781 5779 5777 5775 5773 5771 5770 5768
5794 5797 5798 5800 5802 5803 5805 5806 5807 5808 5808 5809 5809 5809 5809 5808 5808 5807 5807 5806 5806 5805 5803 5802 5800 5798 5796 5793 5790 5788 5785 5782 5780 5778 5776 5774 5772 5769 5767 5766 5763 5762 5760 5758
5786 5789 5790 5792 5793 5795 5796 5797 5798 5799 5800 5800 5800 5800 5800 5800 5799 5799 5798 5798 5797 5796 5795 5793 5791 5789 5787 5784 5782 5779 5776 5773 5771 5768 5766 5764 5762 5760 5757 5756 5754 5752 5750 5748
5778 5780 5781 5783 5785 5786 5788 5789 5789 5790 5791 5792 5792 5792 5792 5792 5791 5791 5790 5789 5788 5788 5786 5785 5783 5780 5778 5775 5773 5770 5767 5764 5762 5759 5757 5755 5752 5750 5748 5746 5744 5742 5740 5739
5769 5771 5773 5775 5776 5778 5779 5780 5781 5782 5782 5783 5783 5783 5783 5783 5783 5782 5782 5781 5780 5779 5777 5776 5774 5772 5769 5766 5764 5761 5758 5756 5753 5751 5748 5746 5744 5741 5739 5736 5734 5732 5731 5729
5762 5763 5765 5766 5768 5769 5770 5772 5773 5774 5774 5774 5775 5775 5774 5774 5774 5774 5773 5772 5771 5770 5768 5767 5765 5763 5760 5758 5755 5752 5749 5747 5744 5742 5739 5737 5734 5732 5729 5727 5724 5722 5720 5718
5753 5755 5757 5758 5760 5761 5762 5763 5764 5765 5765 5766 5766 5766 5766 5766 5766 5765 5765 5764 5763 5761 5760 5758 5756 5754 5751 5749 5746 5743 5740 5738 5735 5733 5730 5727 5725 5722 5720 5717 5714 5712 5710 5708
5746 5747 5749 5750 5752 5753 5754 5755 5756 5756 5757 5758 5758 5758 5758 5758 5757 5757 5756 5755 5754 5753 5751 5749 5747 5744 5742 5740 5737 5734 5732 5729 5726 5724 5721 5718 5715 5713 5710 5707 5705 5703 5700 5698
5737 5739 5741 5742 5744 5745 5746 5747 5748 5749 5749 5750 5750 5750 5750 5750 5749 5749 5748 5747 5745 5743 5742 5739 5737 5735 5733 5730 5728 5725 5723 5720 5717 5715 5712 5709 5706 5704 5701 5698 5696 5693 5691 5689
5730 5732 5733 5735 5736 5737 5738 5739 5740 5741 5742 5742 5743 5743 5742 5742 5741 5740 5739 5738 5736 5734 5732 5730 5728 5726 5723 5721 5719 5716 5714 5711 5708 5706 5703 5700 5697 5695 5692 5689 5687 5684 5682 5679
5723 5725 5726 5728 5729 5730 5731 5732 5733 5734 5734 5735 5735 5734 5734 5733 5733 5732 5731 5729 5727 5726 5724 5722 5719 5717 5715 5712 5710 5708 5705 5703 5700 5697 5694 5692 5689 5686 5683 5681 5678 5675 5673 5670
5716 5718 5719 5721 5722 5723 5724 5725 5725 5726 5727 5727 5727 5727 5726 5725 5725 5724 5722 5721 5719 5717 5715 5713 5710 5708 5706 5704 5702 5699 5697 5694 5692 5689 5686 5683 5680 5678 5675 5672 5670 5667 5664 5661
5710 5711 5713 5714 5715 5716 5717 5717 5718 5719 5719 5719 5719 5719 5718 5717 5716 5715 5714 5712 5710 5708 5706 5704 5702 5700 5698 5695 5693 5691 5689 5686 5683 5681 5678 5675 5673 5670 5667 5664 5661 5658 5655 5653
5704 5705 5707 5708 5709 5710 5710 5711 5711 5711 5712 5712 5711 5711 5710 5709 5708 5707 5705 5704 5702 5700 5698 5696 5694 5692 5690 5688 5685 5683 5680 5678 5675 5673 5670 5667 5665 5662 5659 5656 5653 5650 5648 5645
5697 5699 5700 5701 5702 5703 5703 5704 5704 5704 5704 5704 5703 5703 5702 5701 5700 5699 5697 5696 5694 5692 5690 5688 5686 5684 5682 5680 5677 5675 5672 5669 5667 5664 5662 5659 5656 5654 5651 5648 5646 5643 5640 5637
5691 5693 5694 5695 5696 5696 5697 5697 5697 5697 5697 5696 5696 5695 5694 5693 5692 5691 5689 5688 5686 5684 5682 5680 5678 5676 5674 5671 5669 5666 5664 5661 5658 5656 5653 5651 5648 5645 5642 5640 5637 5635 5632 5630
5686 5687 5688 5688 5689 5690 5690 5690 5690 5689 5689 5689 5688 5687 5687 5686 5684 5683 5682 5680 5678 5677 5674 5672 5670 5667 5665 5663 5660 5658 5655 5652 5649 5647 5644 5642 5639 5637 5634 5632 5629 5627 5624 5622
5680 5681 5682 5682 5683 5683 5683 5683 5683 5683 5682 5682 5681 5680 5679 5678 5677 5676 5674 5673 5671 5669 5667 5665 5662 5660 5657 5654 5652 5649 5646 5644 5641 5639 5637 5634 5631 5629 5626 5624 5622 5620 5617 5615